Orbital Elements at Epoch 2459200.5 (2020-Dec-17.0) TDB
Reference: JPL 11 (heliocentric ecliptic J2000)
Element | Value | Uncertainty (1-sigma) | Units |
e | .2342264014645346 | 6.4652e-08 | |
a | 2.441953140797446 | 1.8636e-08 | au |
q | 1.869983244083442 | 1.6342e-07 | au |
i | 23.99639145790471 | 1.0625e-05 | deg |
node | 43.90921793703334 | 1.3919e-05 | deg |
peri | 89.13105379050891 | 2.8538e-05 | deg |
M | 157.0749242761295 | 2.5063e-05 | deg |
tp | 2458592.352712531341 (2019-Apr-18.85271253) | 9.3687e-05 | TDB |
period | 1393.812694786626 3.82 | 1.5955e-05 4.368e-08 | d yr |
n | .2582843457708003 | 2.9567e-09 | deg/d |
Q | 3.013923037511449 | 2.3001e-08 | au |
|
| | Orbit Determination Parameters
Additional Information
|